[[{"header":{"parameterUnit":"m.s-1","parameterCategory":1,"la1":30.2991,"la2":30.254,"lo1":-89.0895,"lo2":-89.0444,"dy":0.0017,"dx":0.0017,"nx":28,"ny":28,"refTime":"2023-08-15T09:00:00:Z","depth":0,"parameterNumber":2,"parameterNumberName":"U-component_of_WINDS"},"data":[0,0,0,0,0,0,0,0,0,0,0,0,0,0,0,0,0,0,0,0,0,0,0,0,0,0,0,0,0,0,0,0,0,0,0,0,0,0,0,0,0,0,0,0,0,0,0,0,0,0,0,0,0,0,0,0,0,0,5.9437,5.9438,0,5.9522,5.9523,5.9524,5.941,5.9406,5.9402,5.9398,5.9485,5.9491,5.9497,0,0,0,0,0,0,0,0,0,0,0,0,0,5.9172,5.9178,5.9437,5.9438,5.9439,5.9522,5.9523,5.9525,5.9411,5.9406,5.9401,5.9396,5.9483,5.949,5.9498,0,0,0,0,0,0,0,0,0,0,0,0,0,5.9275,5.9179,5.9436,5.9392,5.9389,5.9522,5.9523,5.9525,5.9412,5.9405,5.9399,5.9394,5.9481,5.949,5.9499,5.9679,0,0,5.9527,5.9531,0,0,0,0,0,0,0,0,5.927,5.9285,5.9397,5.9395,5.9392,5.9449,5.9462,5.9577,5.9413,5.9403,5.9398,5.939,5.9478,5.9487,5.9517,5.9683,5.9687,5.9528,5.9533,5.9537,5.954,0,0,0,0,0,0,0,5.9263,5.9281,5.947,5.9399,5.9396,5.9367,5.9375,5.9483,5.9474,5.9403,5.9395,5.9407,5.9475,5.9508,5.9518,5.9688,5.9527,5.9536,5.9541,5.9545,6.0004,6.0011,0,0,0,0,0,0,5.9261,5.9276,5.9468,5.9473,5.9314,5.9377,5.9386,5.9437,5.9473,5.9472,5.9412,5.9401,5.9495,5.9507,5.9521,5.9732,5.9537,5.9546,5.9551,5.9998,6.0006,6.0013,0,0,0,0,0,0,5.9256,5.9279,5.9464,5.9372,5.9394,5.9388,5.9447,5.9442,5.9474,5.9479,5.9477,5.9448,5.9491,5.9508,5.964,5.9733,5.955,5.9558,5.999,6.0,6.0009,6.0157,0,0,0,0,0,0,5.9249,5.9278,5.9347,5.9375,5.9399,5.9584,5.9453,5.9448,5.9491,5.9477,5.9512,5.9511,5.9487,5.9627,5.9649,5.9742,5.9566,5.9981,5.9994,6.0006,6.0144,6.0171,6.0194,0,0,0,0,0,5.924,5.9386,5.9351,5.9375,5.9485,5.9589,5.9603,5.9572,5.9499,5.9568,5.957,5.951,5.972,5.9641,5.9666,5.9763,5.9975,5.9991,6.0005,6.0133,6.0166,6.0194,0,0,0,0,0,0,5.937,5.9389,5.9351,5.951,5.9549,5.957,5.9655,5.9609,5.9669,5.9654,5.9613,5.9622,5.9763,5.9776,5.9689,5.9938,5.9835,5.9856,5.9924,5.9955,5.998,5.9973,5.9573,0,0,0,0,0,5.9417,5.95,5.9512,5.9652,5.9673,5.9662,5.9706,5.9679,5.9717,5.9732,5.9745,5.9784,5.9858,5.9908,5.9977,6.0146,6.015,6.0225,6.025,6.0271,6.0288,6.0376,6.0408,6.0062,6.0062,6.0062,0,0,5.9516,5.9536,5.9591,5.9679,5.9705,5.9791,5.9676,5.9772,5.9835,5.9747,5.9872,5.9883,5.9923,6.0074,6.0142,6.009,6.0385,6.029,6.0306,6.0312,6.0394,6.0427,6.0456,6.0072,6.007,6.0069,0,0,5.9738,5.9764,5.9881,5.991,5.9952,5.9943,5.9971,5.9999,6.0003,6.0128,6.0062,6.0136,6.0266,6.0297,6.0329,6.0563,6.0508,6.0586,6.0717,6.0802,6.083,6.0853,6.0934,6.0963,6.0604,6.0605,6.0605,0,5.9855,5.9982,5.9948,6.0048,6.0087,6.0012,6.0129,6.0159,6.0222,6.025,6.0192,6.0351,6.0373,6.0529,6.0585,6.0616,6.0645,6.0581,6.0829,6.0852,6.0874,6.095,6.0981,6.0614,6.0613,6.0612,6.0611,0,6.0123,6.0212,6.0302,6.0363,6.0413,6.0522,6.0502,6.0557,6.0526,6.0522,6.0649,6.0673,6.0744,6.078,6.0751,6.0931,6.0897,6.0835,6.073,6.0916,6.0987,6.1016,6.0626,6.0623,6.0621,6.0618,0,0,6.0429,6.0469,6.0502,6.0528,6.0568,6.0636,6.074,6.081,6.0856,6.0902,6.0986,6.1097,6.1039,6.1076,6.105,6.1126,6.1305,6.1053,6.1054,6.1097,6.1501,6.1546,6.158,6.127,6.1276,6.128,6.1497,0,6.0649,6.083,6.0801,6.0975,6.1055,6.0985,6.1075,6.1109,6.1109,6.1176,6.1176,6.1254,6.1173,6.1194,6.1266,6.1268,6.1385,6.1252,6.1347,6.1351,6.1336,6.1618,6.1666,6.1869,6.1524,6.1529,6.1533,0,6.093,6.0984,6.1167,6.1192,6.1224,6.1307,6.1366,6.1433,6.1469,6.1463,6.1504,6.1464,6.1566,6.1462,6.1602,6.1512,6.1549,6.1556,6.1563,6.1568,6.1451,6.1628,6.1933,6.1963,6.1576,6.1573,6.157,0,6.1131,6.1251,6.1374,6.1399,6.1432,6.1491,6.1508,6.1538,6.1581,6.1633,6.166,6.1724,6.1759,6.1809,6.1786,6.1713,6.1929,6.1823,6.1925,6.1926,6.1972,6.1969,6.2285,6.2001,6.2001,6.2,6.2,0,6.1378,6.1492,6.1465,6.1541,6.1665,6.1631,6.1754,6.1762,6.179,6.1865,6.1808,6.188,6.1846,6.1915,6.1898,6.2015,6.2032,6.2028,6.2022,6.2032,6.2032,6.2054,6.2038,6.2008,6.2007,6.2005,6.2004,0,6.1623,6.161,6.1739,6.176,6.1768,6.1858,6.1875,6.1945,6.1941,6.2036,6.2057,6.2049,6.2127,6.211,6.2196,6.2184,6.2329,6.2307,6.2317,6.231,6.2412,6.2401,6.275,6.2793,6.2485,6.2488,6.2491,0,6.178,6.1865,6.1895,6.1941,6.1962,6.2038,6.208,6.205,6.2097,6.2143,6.2208,6.228,6.2337,6.2464,6.2466,6.253,6.2507,6.2625,6.2516,6.2522,6.2505,6.2499,6.2506,6.2645,6.2649,6.2652,6.2654,0,6.2059,6.2048,6.2112,6.2174,6.2227,6.2274,6.2316,6.2357,6.233,6.2385,6.2464,6.2508,6.2594,6.2666,6.2726,6.2741,6.2693,6.2689,6.2715,6.2725,6.2725,6.2723,6.2372,6.268,6.2678,6.2676,6.2674,6.2673,6.2263,6.2334,6.2366,6.2438,6.2467,6.2507,6.2573,6.2576,6.2641,6.2709,6.2687,6.2776,6.2808,6.2883,6.2906,6.2974,6.2929,6.2969,6.2978,6.2987,6.2998,6.2717,6.2985,6.2984,6.2984,6.2983,6.2982,0,6.2536,6.2553,6.262,6.268,6.2737,6.2687,6.273,6.2781,6.286,6.2894,6.295,6.3039,6.3108,6.3115,6.318,6.3233,6.3213,6.3251,6.3245,6.3249,6.3036,6.3005,6.3267,6.3267,6.3266,6.3266,6.3266,6.3266,6.2685,6.2802,6.2795,6.2925,6.294,6.3027,6.3055,6.3091,6.3118,6.322,6.3277,6.3281,6.3303,6.3369,6.343,6.343,6.3455,6.3501,6.3493,6.3293,6.3264,6.3237,6.3208,6.3508,6.3508,6.37,6.3702,6.3703]},{"header":{"parameterUnit":"m.s-1","parameterCategory":1,"la1":30.2991,"la2":30.254,"lo1":-89.0895,"lo2":-89.0444,"dy":0.0017,"dx":0.0017,"nx":28,"ny":28,"refTime":"2023-08-15T09:00:00:Z","depth":0,"parameterNumber":3,"parameterNumberName":"V-component_of_WINDS"},"data":[0,0,0,0,0,0,0,0,0,0,0,0,0,0,0,0,0,0,0,0,0,0,0,0,0,0,0,0,0,0,0,0,0,0,0,0,0,0,0,0,0,0,0,0,0,0,0,0,0,0,0,0,0,0,0,0,0,0,2.0757,2.0758,0,2.0884,2.0886,2.0887,2.0921,2.092,2.0919,2.0918,2.1047,2.1051,2.1055,0,0,0,0,0,0,0,0,0,0,0,0,0,2.0538,2.0542,2.0757,2.0758,2.076,2.0884,2.0886,2.0888,2.0921,2.092,2.0919,2.0918,2.1046,2.1051,2.1056,0,0,0,0,0,0,0,0,0,0,0,0,0,2.0646,2.0543,2.0756,2.0791,2.0796,2.0884,2.0886,2.0888,2.0921,2.092,2.0919,2.0918,2.1044,2.105,2.1056,2.1118,0,0,2.1076,2.1078,0,0,0,0,0,0,0,0,2.064,2.0654,2.0785,2.0789,2.0794,2.0885,2.0856,2.0965,2.0921,2.0873,2.0918,2.0917,2.0994,2.1004,2.1031,2.1124,2.113,2.1076,2.108,2.1083,2.1084,0,0,0,0,0,0,0,2.0632,2.0649,2.0807,2.0786,2.0792,2.08,2.0814,2.0877,2.0939,2.0877,2.088,2.0895,2.0997,2.1025,2.1034,2.1132,2.1076,2.1081,2.1085,2.1088,2.128,2.1282,0,0,0,0,0,0,2.0619,2.0642,2.0803,2.0811,2.0713,2.0804,2.082,2.0857,2.0938,2.0949,2.0896,2.0896,2.1015,2.1027,2.1039,2.1116,2.1082,2.1088,2.1092,2.1279,2.1281,2.1282,0,0,0,0,0,0,2.0614,2.0633,2.0798,2.0727,2.0749,2.0809,2.0851,2.086,2.0889,2.0952,2.0963,2.0914,2.1014,2.103,2.1098,2.1121,2.1091,2.1097,2.1277,2.1279,2.1281,2.127,0,0,0,0,0,0,2.0608,2.0631,2.0656,2.0728,2.0753,2.0856,2.0852,2.0864,2.09,2.0901,2.0972,2.0982,2.1015,2.1089,2.1104,2.1129,2.1102,2.1276,2.1278,2.1281,2.1269,2.1272,2.1274,0,0,0,0,0,2.06,2.0648,2.0657,2.0677,2.0785,2.0857,2.0871,2.0908,2.0901,2.0926,2.0967,2.098,2.1115,2.1095,2.1113,2.114,2.1274,2.1277,2.128,2.1268,2.1271,2.1274,0,0,0,0,0,0,2.0577,2.0658,2.0669,2.0742,2.0793,2.0863,2.0896,2.0911,2.0964,2.0963,2.1006,2.1022,2.1086,2.112,2.1096,2.1203,2.1195,2.1202,2.1179,2.1183,2.1185,2.1176,2.1107,0,0,0,0,0,2.0581,2.0633,2.0701,2.0758,2.0783,2.0835,2.0868,2.0892,2.0945,2.0967,2.1012,2.1063,2.1117,2.1152,2.1205,2.1273,2.1288,2.13,2.1303,2.1305,2.131,2.1347,2.1353,2.1292,2.1292,2.1292,0,0,2.0589,2.0639,2.067,2.0755,2.0797,2.0849,2.0853,2.0908,2.0947,2.0975,2.1042,2.1077,2.1136,2.1204,2.1236,2.1234,2.133,2.1309,2.131,2.1314,2.1351,2.1357,2.1362,2.1294,2.1294,2.1294,0,0,2.063,2.0674,2.0726,2.0768,2.0831,2.0865,2.0877,2.0945,2.0969,2.1037,2.1058,2.1104,2.1197,2.1238,2.1271,2.1325,2.1339,2.1341,2.1355,2.1391,2.1395,2.14,2.1418,2.1424,2.1346,2.1346,2.1346,0,2.0631,2.0712,2.0751,2.0805,2.0841,2.0869,2.0921,2.0959,2.1036,2.106,2.1057,2.1172,2.1214,2.1292,2.1305,2.1331,2.1345,2.1334,2.1392,2.1396,2.1401,2.1419,2.1426,2.1346,2.1346,2.1346,2.1346,0,2.071,2.0765,2.08,2.0874,2.0914,2.0967,2.1012,2.1048,2.1068,2.1101,2.1169,2.122,2.1284,2.1304,2.1324,2.1383,2.138,2.1383,2.1376,2.1406,2.1424,2.1431,2.1346,2.1346,2.1346,2.1346,0,0,2.0742,2.0835,2.0847,2.088,2.0951,2.0995,2.1048,2.111,2.1139,2.1191,2.1236,2.1313,2.1316,2.1353,2.1378,2.1409,2.1447,2.1409,2.1411,2.1413,2.1515,2.1511,2.1519,2.1456,2.1458,2.1459,2.1509,0,2.0791,2.0889,2.0924,2.1003,2.1054,2.108,2.1126,2.1174,2.1206,2.1253,2.1288,2.1342,2.1343,2.1365,2.1397,2.1436,2.1468,2.1433,2.1498,2.15,2.1482,2.1528,2.1526,2.1571,2.1517,2.1518,2.1519,0,2.0862,2.0915,2.0999,2.1063,2.1085,2.1126,2.1185,2.123,2.1284,2.1305,2.1346,2.1368,2.1423,2.1412,2.1488,2.1463,2.1492,2.1514,2.1517,2.1524,2.1511,2.1536,2.1586,2.1592,2.153,2.1529,2.1528,0,2.0875,2.0967,2.103,2.1057,2.1133,2.1161,2.1193,2.1246,2.1281,2.1332,2.1355,2.1411,2.1442,2.1485,2.1521,2.151,2.1593,2.1586,2.1611,2.161,2.1628,2.1627,2.1682,2.1647,2.1647,2.1646,2.1646,0,2.0927,2.0977,2.1036,2.1075,2.1131,2.1171,2.1225,2.1259,2.1306,2.135,2.1376,2.1416,2.1462,2.1508,2.1537,2.1594,2.1608,2.1626,2.1633,2.1624,2.1621,2.1643,2.1641,2.1648,2.1648,2.1648,2.1647,0,2.0952,2.0994,2.1063,2.1128,2.1146,2.1185,2.124,2.1277,2.131,2.1366,2.1381,2.1432,2.1488,2.1528,2.16,2.1619,2.168,2.1688,2.1662,2.1666,2.1689,2.1686,2.1761,2.1772,2.1729,2.1729,2.173,0,2.0982,2.1021,2.1091,2.1122,2.1155,2.1206,2.1241,2.128,2.1316,2.1379,2.1408,2.1466,2.1514,2.1601,2.1644,2.1698,2.1707,2.1729,2.1715,2.1704,2.1706,2.1703,2.1707,2.1731,2.1731,2.1732,2.1732,0,2.103,2.1048,2.1099,2.1156,2.1197,2.1244,2.1291,2.1315,2.1363,2.1401,2.1458,2.1495,2.1568,2.1624,2.1683,2.1715,2.1731,2.1736,2.1744,2.1735,2.1719,2.1727,2.1667,2.1734,2.1734,2.1733,2.1733,2.1733,2.1058,2.1094,2.1148,2.1202,2.1242,2.1285,2.1323,2.136,2.1409,2.1472,2.1491,2.155,2.1601,2.1681,2.1714,2.176,2.1759,2.1772,2.1775,2.1778,2.1777,2.1711,2.1771,2.1771,2.1771,2.1771,2.1771,0,2.1107,2.1143,2.1193,2.1258,2.13,2.1312,2.1364,2.1398,2.145,2.1497,2.1543,2.1608,2.1662,2.1709,2.1764,2.1792,2.18,2.1805,2.1803,2.181,2.1775,2.1761,2.1797,2.1797,2.1797,2.1797,2.1797,2.1797,2.1137,2.1198,2.1222,2.1302,2.1337,2.1396,2.1424,2.1463,2.1501,2.1572,2.1617,2.1647,2.1694,2.1753,2.1802,2.1814,2.1833,2.1836,2.185,2.1816,2.1813,2.181,2.1797,2.184,2.184,2.1882,2.1882,2.1882]}]]